Location: Fiddletown
(38.4917°N, 120.6633°W)
Time: 11:23:38
(UTC-07:00)

Envisat - Visible Passes

Search period start: 26 May 2016 00:00
Search period end: 05 June 2016 00:00
Orbit: 764 x 766 km, 98.3° (Epoch: 26 May)

Date Brightness Start Highest point End Pass type
(mag) Time Alt. Az. Time Alt. Az. Time Alt. Az.
26 May 3.1 21:22:54 13° SSE 21:27:18 61° ENE 21:32:19 10° N visible
26 May 5.4 23:04:03 10° WSW 23:06:41 14° W 23:09:20 10° WNW visible
27 May 4.1 20:46:37 10° SE 20:50:52 27° ENE 20:55:06 10° N visible
27 May 4.4 22:25:56 14° SSW 22:29:43 32° W 22:34:17 10° NNW visible
28 May 3.1 21:48:47 15° S 21:52:56 76° WSW 21:58:02 10° NNW visible
29 May 3.4 21:11:37 11° SE 21:16:21 48° ENE 21:21:14 10° N visible
29 May 5.2 22:52:09 10° SW 22:55:35 18° W 22:59:03 10° NW visible
30 May 4.0 22:14:39 14° SSW 22:18:40 41° W 22:23:29 10° NNW visible
31 May 3.0 21:37:30 14° SSE 21:41:57 85° ENE 21:47:03 10° NNW visible
01 Jun 3.7 21:00:47 10° SE 21:05:25 38° ENE 21:10:05 10° N visible
01 Jun 4.9 22:40:33 10° SSW 22:44:30 23° W 22:48:31 10° NW visible
02 Jun 3.6 22:03:24 14° S 22:07:39 53° W 22:12:37 10° NNW visible
03 Jun 3.0 21:26:14 12° SSE 21:30:58 67° ENE 21:36:02 10° N visible
03 Jun 5.5 23:08:15 10° WSW 23:10:25 13° W 23:12:37 10° WNW visible
04 Jun 4.0 20:50:08 10° SE 20:54:30 30° ENE 20:58:53 10° N visible
04 Jun 4.6 22:29:18 11° SSW 22:33:26 29° W 22:37:51 10° NW visible
